Wind_Speed
27 27 27 28 28 28 28 28 28 28 29 30 30 31 32 33 34 35 36 37 37 38 38 39 40 40 41 41 40 41 41 40 39 38 37 37 37 35
24 25 25 26 26 26 26 27 27 28 28 28 28 30 31 32 33 34 35 36 37 37 37 38 38 40 41 41 41 41 41 40 40 39 38 38 38 37
24 24 24 25 25 25 26 26 27 27 28 28 28 29 29 30 31 32 34 35 36 36 36 36 37 38 39 40 40 41 41 41 40 39 39 39 38 38
24 24 22 22 23 24 24 25 25 26 27 27 27 28 29 30 30 31 32 32 33 33 34 35 36 37 38 38 39 39 39 39 39 40 40 39 39 38
22 22 21 20 21 22 23 23 23 24 25 26 26 27 27 28 28 29 29 29 30 31 33 34 35 36 37 38 38 39 39 39 39 39 40 40 40 40
21 21 20 20 19 20 21 21 22 23 24 25 26 25 26 27 27 28 28 28 29 30 31 32 34 35 36 37 38 38 39 39 39 40 40 40 40 39
20 20 20 20 20 20 21 21 22 22 23 24 24 24 24 25 26 26 27 27 29 29 30 30 31 32 34 35 36 37 38 39 39 39 40 39 39 38
19 19 20 20 20 21 21 21 22 22 22 22 23 23 23 23 24 25 26 27 27 28 29 29 30 30 32 33 33 34 35 36 37 37 37 37 37 37
18 19 19 20 20 20 20 21 21 21 21 22 22 22 22 22 23 23 24 26 26 27 27 27 29 29 30 31 31 32 33 34 35 35 36 36 36 36
17 18 18 19 19 20 19 19 19 20 20 20 20 20 20 20 21 21 22 23 24 25 25 26 27 28 29 30 31 31 32 33 33 34 34 34 35 36
17 17 18 18 18 18 18 18 18 19 19 19 19 19 19 20 21 21 21 22 23 24 24 25 26 27 29 30 31 31 31 32 33 33 33 33 33 34
18 18 17 17 17 18 18 18 18 18 18 18 18 19 20 20 21 21 21 22 23 23 24 26 26 27 28 30 31 31 31 31 32 32 32 33 33 33
18 18 18 18 18 17 17 18 18 17 17 18 18 19 19 20 20 20 21 22 22 23 23 25 26 26 27 28 30 31 31 31 31 32 32 32 33 33
18 18 18 17 17 18 17 17 18 18 18 17 17 18 19 20 20 20 21 22 23 23 24 24 25 26 26 27 28 29 30 31 31 31 31 32 32 32
19 19 18 17 17 17 17 17 17 17 17 17 17 18 18 18 19 20 20 20 21 23 24 24 25 25 25 26 27 27 28 29 30 30 31 32 32 32
19 19 19 18 18 18 18 17 17 17 17 17 17 17 17 17 18 18 19 19 20 21 21 23 24 25 25 25 26 27 27 28 29 30 30 31 32 32
20 20 20 19 19 19 19 18 19 18 17 17 18 18 18 18 17 18 19 20 20 21 21 22 23 24 25 26 26 27 27 28 28 29 29 30 31 32
20 20 20 20 19 19 18 19 19 19 19 18 18 18 19 19 19 19 20 20 21 22 22 22 23 23 24 25 26 27 28 28 28 29 29 29 30 31
21 21 20 20 20 19 19 19 19 19 19 19 18 18 19 19 19 20 20 21 21 21 22 23 23 23 23 23 25 26 26 27 28 28 29 29 30 30
22 22 21 21 21 20 20 20 20 20 20 20 19 19 20 20 20 20 21 21 22 22 22 22 23 23 23 23 24 25 25 25 26 27 28 29 29 29
23 22 22 22 22 22 22 22 22 22 22 22 22 21 21 21 21 21 22 21 22 22 22 22 23 23 23 24 24 25 25 25 25 26 26 27 27 27
23 23 23 22 23 23 23 23 23 24 24 23 23 23 22 22 22 23 23 22 22 22 21 21 22 23 24 24 24 24 24 25 25 24 24 25 26 27
24 24 24 24 24 23 24 24 25 25 24 23 23 23 22 23 23 23 23 22 22 21 21 21 22 22 22 22 23 23 23 24 24 25 25 25 25 26
Wind_Direction
283 280 278 277 278 278 276 276 273 271 270 269 267 265 264 262 259 257 255 252 250 250 251 250 250 248 247 246 247 246 247 248 248 246 247 247 247 248
285 283 281 279 279 280 279 278 275 273 271 270 270 269 267 265 263 260 255 252 251 252 252 251 250 248 247 247 246 246 246 246 247 247 247 247 248 249
287 285 283 282 281 281 280 277 275 275 274 271 271 272 270 267 266 262 257 254 252 252 252 252 251 250 249 247 245 246 245 245 247 247 248 249 249 249
287 286 284 283 283 282 281 278 277 276 275 273 273 273 272 270 267 264 260 256 253 253 253 253 252 252 251 248 246 246 246 247 248 248 248 248 248 248
290 290 289 287 287 286 284 281 279 277 276 274 273 273 273 273 269 265 261 258 254 254 254 253 252 251 250 248 247 247 247 248 248 248 248 248 248 248
293 293 292 290 289 289 288 285 282 279 276 275 273 272 270 271 268 264 261 259 256 256 256 254 252 251 250 249 248 247 248 249 250 249 248 249 248 249
295 293 291 289 287 288 289 287 285 282 279 277 274 272 271 270 268 264 261 260 257 256 257 256 253 251 251 250 250 249 248 248 248 249 249 249 249 248
295 294 293 290 288 288 288 287 285 284 281 279 276 275 272 270 268 266 265 262 259 258 258 256 255 252 251 251 251 249 248 248 248 247 248 248 248 248
301 300 297 296 292 291 291 289 288 286 282 279 276 274 271 269 267 267 266 263 259 259 258 256 254 253 251 250 249 249 249 249 249 248 248 248 248 248
307 304 302 299 299 296 296 295 293 291 288 283 280 275 270 269 270 269 266 263 260 259 259 258 255 254 252 252 251 251 250 251 251 249 248 247 248 248
316 313 309 307 305 304 301 298 296 293 291 288 286 281 275 273 271 269 268 266 262 260 259 259 258 256 254 253 253 251 250 250 249 249 247 247 247 248
319 317 315 313 308 308 306 302 299 297 292 289 289 287 284 280 277 273 270 268 265 262 261 260 259 258 256 254 253 251 250 249 249 249 248 248 247 248
323 321 319 316 314 312 308 306 304 300 295 290 286 285 284 281 279 277 273 270 266 262 263 262 261 260 258 255 254 252 251 250 249 250 248 247 247 248
327 325 321 319 318 316 312 308 307 304 300 297 292 289 285 281 278 277 276 275 270 264 264 263 262 260 257 255 254 253 252 252 252 250 249 249 249 248
328 326 323 322 321 319 315 312 310 308 305 300 297 294 291 286 281 278 277 274 272 268 267 264 263 261 257 254 253 253 253 252 252 251 250 249 249 248
329 328 325 322 320 318 316 314 313 309 306 305 300 297 292 288 284 282 280 278 274 270 269 266 263 261 257 255 253 253 253 251 251 252 250 249 249 249
332 331 328 324 321 319 318 315 314 311 307 304 300 298 294 289 286 285 281 278 276 273 270 268 266 263 260 257 253 252 253 252 252 251 251 251 251 251
333 331 329 326 323 321 319 317 315 314 309 304 302 298 296 292 289 285 283 279 276 273 271 270 267 264 261 258 254 252 252 253 252 251 251 251 251 252
333 331 329 328 326 324 321 318 316 315 312 307 304 302 299 296 293 289 285 283 281 277 274 271 268 265 262 259 255 253 252 252 252 251 250 250 250 251
335 332 329 327 324 323 321 318 315 315 312 308 306 303 300 297 294 292 287 283 281 279 276 272 269 265 263 261 256 254 253 252 250 250 249 248 249 248
334 332 329 328 325 323 321 318 315 312 311 308 304 303 301 298 293 290 288 283 280 278 276 273 270 268 266 264 260 256 253 252 251 251 249 248 247 245
335 332 329 327 324 323 322 320 317 314 311 308 304 303 301 298 294 290 287 285 282 281 277 274 273 270 267 263 260 259 255 252 250 250 249 248 247 246
337 334 332 330 327 326 323 321 319 317 314 310 306 305 304 301 297 291 288 287 285 282 279 276 274 269 266 264 261 259 256 254 251 250 249 248 247 246
Height
5723 5722 5720 5719 5717 5716 5715 5714 5713 5713 5712 5711 5710 5709 5709 5709 5710 5711 5713 5715 5717 5719 5721 5723 5726 5729 5732 5735 5738 5742 5744 5748 5751 5754 5757 5759 5762 5764
5716 5714 5712 5711 5709 5708 5707 5706 5705 5704 5703 5702 5701 5701 5700 5700 5700 5701 5702 5704 5706 5709 5711 5713 5716 5718 5721 5725 5728 5732 5735 5738 5741 5744 5747 5750 5752 5755
5709 5707 5705 5704 5702 5701 5699 5698 5697 5696 5695 5694 5693 5692 5691 5691 5691 5692 5693 5694 5696 5699 5701 5703 5705 5708 5711 5714 5718 5721 5725 5728 5731 5734 5737 5740 5743 5746
5702 5700 5698 5697 5695 5693 5692 5690 5689 5688 5687 5686 5685 5684 5683 5683 5683 5683 5684 5685 5687 5689 5691 5693 5696 5698 5701 5704 5708 5711 5715 5718 5721 5724 5727 5730 5733 5735
5696 5694 5692 5690 5688 5687 5685 5683 5682 5681 5680 5679 5678 5677 5676 5675 5675 5675 5675 5676 5678 5680 5682 5684 5686 5689 5692 5695 5698 5702 5705 5708 5711 5714 5716 5720 5723 5725
5690 5688 5686 5684 5682 5681 5679 5677 5676 5674 5673 5672 5671 5670 5669 5667 5667 5667 5668 5669 5670 5672 5673 5675 5677 5679 5682 5685 5689 5692 5695 5697 5700 5703 5706 5709 5712 5715
5684 5682 5680 5678 5677 5675 5673 5671 5670 5668 5666 5665 5664 5662 5662 5661 5660 5660 5661 5661 5662 5664 5665 5667 5669 5671 5673 5676 5679 5682 5685 5688 5690 5693 5696 5699 5702 5705
5679 5677 5675 5673 5671 5669 5667 5665 5663 5662 5660 5658 5657 5656 5655 5654 5654 5653 5653 5654 5655 5657 5657 5659 5660 5662 5664 5667 5669 5672 5675 5678 5680 5683 5686 5689 5692 5694
5674 5672 5669 5667 5665 5663 5661 5659 5657 5655 5653 5652 5650 5649 5649 5648 5647 5647 5647 5647 5648 5648 5649 5651 5652 5654 5656 5658 5660 5663 5665 5668 5670 5673 5676 5679 5682 5684
5669 5667 5664 5662 5659 5657 5655 5653 5651 5649 5647 5645 5644 5643 5642 5642 5641 5641 5640 5640 5640 5641 5642 5643 5644 5646 5648 5650 5652 5654 5656 5658 5661 5663 5666 5669 5672 5674
5665 5662 5660 5657 5655 5652 5650 5648 5645 5643 5641 5639 5638 5637 5636 5635 5635 5635 5634 5634 5634 5634 5635 5636 5637 5638 5640 5641 5643 5645 5647 5649 5651 5654 5657 5659 5662 5664
5662 5658 5655 5653 5650 5648 5645 5643 5641 5638 5636 5634 5633 5631 5630 5629 5629 5628 5628 5628 5628 5628 5628 5629 5629 5630 5631 5632 5634 5635 5637 5639 5642 5644 5647 5650 5652 5655
5658 5655 5652 5649 5646 5643 5641 5638 5636 5633 5631 5629 5628 5626 5625 5624 5623 5622 5622 5621 5621 5621 5622 5622 5622 5622 5623 5624 5625 5626 5628 5630 5632 5635 5637 5640 5643 5645
5654 5651 5648 5645 5642 5639 5636 5634 5631 5628 5626 5624 5622 5621 5619 5618 5617 5616 5615 5614 5614 5614 5614 5614 5614 5614 5615 5616 5617 5618 5620 5622 5624 5626 5628 5631 5633 5636
5651 5648 5644 5641 5638 5635 5632 5629 5626 5624 5621 5619 5617 5615 5613 5612 5611 5610 5609 5608 5607 5607 5607 5607 5607 5607 5607 5608 5609 5610 5612 5613 5615 5617 5619 5621 5624 5627
5647 5644 5641 5637 5634 5631 5628 5625 5622 5619 5616 5614 5612 5610 5608 5606 5605 5604 5603 5602 5601 5600 5600 5599 5599 5599 5599 5600 5601 5602 5604 5605 5607 5608 5610 5612 5614 5617
5644 5640 5637 5633 5630 5627 5623 5620 5617 5614 5612 5609 5607 5605 5603 5601 5600 5598 5597 5596 5595 5594 5593 5592 5592 5591 5592 5592 5593 5594 5596 5597 5598 5600 5602 5604 5606 5608
5641 5637 5633 5629 5626 5622 5619 5616 5613 5610 5607 5604 5602 5599 5597 5595 5594 5592 5591 5589 5588 5587 5586 5585 5584 5584 5584 5584 5585 5586 5587 5589 5590 5591 5593 5595 5597 5599
5637 5633 5629 5626 5622 5618 5615 5611 5608 5605 5602 5599 5596 5594 5592 5589 5587 5585 5583 5582 5581 5579 5578 5577 5576 5576 5576 5577 5577 5578 5579 5580 5581 5583 5584 5586 5588 5590
5633 5629 5625 5621 5617 5613 5610 5606 5603 5600 5597 5593 5590 5588 5585 5583 5581 5578 5576 5575 5573 5572 5571 5569 5569 5568 5568 5569 5569 5570 5570 5572 5573 5574 5576 5577 5579 5581
5629 5625 5621 5617 5612 5608 5605 5601 5597 5594 5591 5587 5584 5581 5578 5576 5573 5571 5569 5567 5566 5564 5563 5562 5561 5561 5560 5561 5561 5562 5562 5563 5564 5566 5567 5569 5571 5573
5625 5621 5616 5612 5607 5603 5599 5595 5591 5587 5584 5580 5577 5574 5571 5568 5566 5563 5561 5559 5558 5556 5555 5554 5553 5553 5553 5553 5553 5553 5554 5555 5556 5558 5559 5561 5562 5565
5621 5616 5612 5607 5602 5598 5593 5589 5585 5581 5577 5573 5570 5566 5563 5561 5558 5556 5553 5551 5550 5548 5547 5546 5545 5545 5544 5544 5545 5545 5546 5547 5548 5550 5552 5553 5554 5556